Location: Forest Hills
(36.0651°N, 86.8403°W)
Time: 09:16:26
(UTC+00:00)

ARIANE 6 FM1 Upper Stage - Visible Passes

Search period start: 21 January 2026 00:00
Search period end: 31 January 2026 00:00
Orbit: 522 x 610 km, 62.0° (Epoch: 20 January)

Date Brightness Start Highest point End Pass type
(mag) Time Alt. Az. Time Alt. Az. Time Alt. Az.
21 Jan 4.8 01:34:38 10° WSW 01:37:06 24° WNW 01:37:06 24° WNW visible
21 Jan 3.2 23:55:25 10° S 23:59:16 39° ESE 00:01:59 17° ENE visible
22 Jan 5.1 01:35:31 10° W 01:38:03 18° NW 01:38:03 18° NW visible
22 Jan 2.6 23:55:18 10° SSW 23:59:22 64° ESE 00:02:50 13° NE visible
23 Jan 5.4 01:36:47 10° WNW 01:38:44 13° NW 01:38:53 13° NW visible
23 Jan 2.7 23:55:23 10° SW 23:59:29 80° WNW 00:03:32 10° NNE visible
24 Jan 3.4 23:55:39 10° SW 23:59:39 50° NW 00:03:34 10° NNE visible
25 Jan 4.1 23:56:07 10° WSW 23:59:50 33° NW 00:03:30 10° NNE visible
26 Jan 4.7 23:56:47 10° WSW 00:00:03 23° NW 00:03:17 10° N visible
27 Jan 5.1 23:57:44 10° W 00:00:18 16° NW 00:02:51 10° N visible
28 Jan 5.3 23:59:15 10° WNW 00:00:36 11° NW 00:01:57 10° NNW visible
